Weather Roundup
Issued by NWS

Home | Current Version | Previous Version | Graphics & Text | Print | Product List | Glossary Off
Versions: 1 2 3 4 5 6 7 8 9 10 11 12 13 14 15 16 17 18 19 20 21 22 23 24 25 26 27 28 29 30 31 32 33 34 35 36 37 38 39 40 41 42 43 44 45 46 47 48 49 50

000
NZUS93 KARX 281110
HRRWXR

CURRENT HOURLY OBSERVATIONS ACROSS
MUCH OF THE UPPER MISSISSIPPI VALLEY
NATIONAL WEATHER SERVICE LA CROSSE WI
500 AM CST SAT FEB 28 2015


...SOUTHEAST MINNESOTA...


CITY           SKY/WX    TMP DP  RH WIND       PRES   REMARKS
ROCHESTER      PTCLDY   -14 -18  82 S9        30.51R WCI -33
ROCHESTER/MAYO FAIR      -8 -13  77 SE5       30.53S WCI -19
WINONA         PTCLDY    -8 -13  77 CALM      30.62R
AUSTIN         PTCLDY    -9 -15  77 S6        30.51S WCI -23
ALBERT LEA     PTCLDY    -6  -9  84 S6        30.50R WCI -18
DODGE CENTER   PTCLDY    -9 -13  84 S6        30.49S WCI -23
PRESTON        MOCLDY   -10 -15  80 S5        30.53S WCI -22
OWATONNA       PTCLDY    -4  -9  77 SE10      30.50R WCI -21
FARIBAULT      FAIR      -6  -9  84 S3        30.51S
$$

...ELSEWHERE IN MINNESOTA...


CITY           SKY/WX    TMP DP  RH WIND       PRES   REMARKS
MINNEAPOLIS    CLEAR     -1  -6  79 SE6       30.53R WCI -13
INTNL FALLS    PTCLDY    -1  -8  72 S6        30.31S WCI -13
DULUTH         PTCLDY     0  -6  76 SW7       30.39S WCI -13
RED WING       FAIR      -6  -9  84 CALM      30.56R
REDWOOD FALLS  CLEAR     -7 -11  83 S8        30.45R WCI -23
MANKATO        PTCLDY    -6 -13  71 S9        30.49S WCI -22
FAIRMONT       FAIR      -8 -15  71 S7        30.46S WCI -22
$$

...SOUTHWEST WISCONSIN...


CITY           SKY/WX    TMP DP  RH WIND       PRES   REMARKS
LA CROSSE      PTCLDY    -7 -12  79 S5        30.62R WCI -18
PRAIRIE DU CHI PTCLDY   -15 -22  72 CALM      30.65R
BOSCOBEL       PTCLDY   -17 -24  70 CALM      30.65R
LONE ROCK      CLEAR    -15 -20  78 CALM      30.64R
PLATTEVILLE    FAIR      -6 -10  83 SE5       30.59S WCI -17
FORT MC COY    PTCLDY   -15 -21  74 CALM      30.61R
CAMP DOUGLAS   CLEAR    -12 -16  85 SE6       30.59R WCI -26
VIROQUA        FAIR      -5  -9  84 SW5       30.54S WCI -16
WIS DELLS      CLEAR     -6 -11  79 CALM      30.59S
$$

...ELSEWHERE IN WISCONSIN...


CITY           SKY/WX    TMP DP  RH WIND       PRES   REMARKS
MILWAUKEE      CLEAR     -1 -10  65 SW3       30.65R
MADISON        PTCLDY    -7 -11  83 CALM      30.62R
GREEN BAY      CLEAR      1  -6  72 SW6       30.61R WCI -10
EAU CLAIRE     PTCLDY    -3  -8  79 S3        30.55R
BLACK RVR FLS  FAIR     -19 -26  69 CALM      30.59R
MEDFORD        MOCLDY    -8 -12  84 CALM      30.48R
WAUSAU         PTCLDY    -5  -9  83 S3        30.52R
WIS RAPIDS     MOCLDY    -9 -14  78 CALM      30.58S
MARSHFIELD     MOCLDY    -8 -13  78 CALM      30.52S
RICE LAKE      PTCLDY    -9 -14  78 SE3       30.52S
$$

...NORTHEAST IOWA...


CITY           SKY/WX    TMP DP  RH WIND       PRES   REMARKS
DECORAH        MOCLDY    -8 -13  77 SW5       30.56R WCI -19
MASON CITY     PTCLDY   -16 -20  82 S6        30.53S WCI -31
CHARLES CITY   MOCLDY    -8 -13  77 SE8       30.56S WCI -23
OELWEIN        PTCLDY    -9 -15  77 SE7       30.58R WCI -24
$$

...ELSEWHERE IN IOWA...


CITY           SKY/WX    TMP DP  RH WIND       PRES   REMARKS
DES MOINES     CLEAR      3  -4  72 SE7       30.56R WCI  -9
IOWA CITY      MOCLDY   -10 -14  82 CALM      30.65S
FORT DODGE     PTCLDY    -6 -11  77 CALM      30.52S
$$

...NORTHERN ILLINOIS...


CITY           SKY/WX    TMP DP  RH WIND       PRES   REMARKS
CHICAGO-OHARE  PTCLDY    -8 -13  78 CALM      30.67R
CHICAGO-MIDWAY PTCLDY     2  -5  72 CALM      30.69R
MOLINE         PTCLDY   -16 -24  67 CALM      30.66S
ROCKFORD       MOCLDY   -14 -20  74 CALM      30.68R
PEORIA         CLOUDY     3  -3  76 E3        30.68R
$$

NOTE: "FAIR" INDICATES FEW OR NO CLOUDS BELOW 12,000 FEET WITH NO
SIGNIFICANT WEATHER AND/OR OBSTRUCTIONS TO VISIBILITY. WIND
SPEEDS ARE IN MILES-PER-HOUR.



USA.gov is the U.S. government's official web portal to all federal, state and local government web resources and services.